Location: DARK SKY Beskydy - Park tmavé oblohy, www.darkskybeskydy.cz
(49.4926°N, 18.5016°E)
Time: 11:52:47
(UTC+02:00)

BlueWalker 3 - Pass Details

Date: 21 June 2024
Orbit: 480 x 491 km, 53.2° (Epoch: 23 July)

Event Time Altitude Azimuth Distance (km) Brightness Sun altitude
Rises 22:30:36 0° 252° (WSW) 2,535 5.7 -10.9°
Reaches altitude 10° 22:32:47 10° 255° (WSW) 1,656 4.8 -11.1°
Maximum altitude 22:36:30 72° 340° (NNW) 509 2.1 -11.4°
Drops below altitude 10° 22:40:14 10° 66° (ENE) 1,658 4.5 -11.7°
Sets 22:42:25 0° 68° (ENE) 2,538 5.4 -11.9°
